GFSMA_925_thetae_000.txt.gz
Theta_e
294 294 294 294 294 293 292 292 292 293 293 293 294 294 294 295 295 295 296 297 298 303 305 307 309 311 313 314 319 326 328 328 331 333 330 332 334 336 337 338 339 339 335
293 293 293 293 293 292 291 291 292 292 292 293 293 293 293 294 294 294 294 295 296 299 302 304 306 308 310 312 314 316 324 329 330 331 334 331 331 334 336 337 338 339 337
293 292 292 292 291 291 290 290 291 291 291 292 292 292 293 293 293 293 294 295 296 297 300 303 305 306 307 309 311 314 315 319 327 330 331 334 333 332 334 336 336 339 338
292 291 291 291 291 290 290 290 290 291 290 291 291 291 293 291 291 292 293 295 297 298 299 299 301 303 304 306 308 310 312 317 318 325 330 330 332 333 332 334 335 338 338
291 290 291 290 289 289 289 289 290 289 290 290 291 292 290 291 291 293 294 296 297 298 298 299 300 301 303 304 306 307 309 311 313 319 325 329 330 331 332 333 334 336 338
290 289 289 289 289 288 288 289 289 289 289 290 291 290 291 290 293 294 295 297 298 300 300 300 301 302 302 302 304 307 309 311 312 312 313 322 329 329 330 332 333 335 337
289 289 289 288 288 288 288 288 288 289 289 289 290 290 290 293 292 295 296 297 298 298 298 298 298 299 301 302 304 306 308 305 311 312 317 314 315 327 330 329 332 334 336
288 288 288 288 288 287 287 287 288 289 288 290 289 289 289 291 294 292 292 293 296 297 297 298 298 296 295 297 296 299 305 308 309 314 313 314 321 320 323 330 331 332 333
288 288 288 288 287 286 286 287 287 288 288 287 288 289 289 289 290 292 292 291 292 293 293 293 294 296 294 296 297 296 299 301 302 303 303 305 312 320 325 326 328 332 332
288 288 288 287 286 286 286 286 286 287 286 286 287 288 289 290 289 289 291 290 289 292 293 292 292 294 293 292 293 294 293 293 297 301 303 305 309 309 315 323 329 327 332
287 288 287 286 286 285 285 285 285 285 285 286 286 286 287 287 288 288 288 288 289 288 289 290 290 290 291 292 292 290 294 296 295 295 296 302 302 302 302 311 322 328 329
287 287 286 286 285 284 284 284 284 284 283 283 284 284 285 286 286 286 286 286 286 287 287 287 288 288 289 289 289 292 292 292 293 295 298 298 299 300 300 305 312 321 326
286 286 286 285 284 284 283 282 282 281 282 282 282 283 283 284 284 285 285 285 285 285 285 286 286 287 288 289 290 290 290 292 293 295 295 296 298 302 303 305 306 311 319
286 285 285 285 283 282 281 281 280 280 280 281 281 281 282 282 283 283 284 284 284 284 284 285 285 286 286 287 288 290 290 289 290 292 297 297 297 302 304 303 301 302 308
285 285 284 284 283 281 280 279 279 279 279 279 280 280 280 281 281 282 282 283 283 283 284 284 284 284 284 284 285 286 288 287 289 290 291 293 295 300 303 303 300 302 304
285 285 284 283 281 280 279 279 278 278 278 278 278 279 279 279 279 279 279 280 281 282 282 282 282 282 282 282 283 283 283 284 285 287 289 289 294 297 298 302 302 303 304
284 284 283 282 280 279 279 278 277 277 276 276 276 275 275 275 275 275 275 276 277 278 279 279 279 279 279 279 280 281 281 282 282 283 284 287 290 292 295 298 302 303 305
283 283 281 280 279 278 277 277 276 275 274 274 273 273 273 273 273 272 272 273 273 274 275 275 275 275 276 276 277 278 279 279 280 280 281 284 287 293 293 295 297 302 306
281 280 280 279 278 277 276 276 274 273 273 272 272 272 272 272 272 272 272 272 272 272 272 273 273 273 274 274 275 276 277 277 279 280 282 283 286 289 291 294 299 304 303
280 279 278 277 276 275 275 274 272 272 271 271 272 272 272 272 272 272 272 272 272 272 272 272 273 273 274 274 275 276 277 278 280 282 284 287 290 291 293 297 300 301 303
278 278 276 275 275 275 275 273 272 271 272 272 272 272 272 272 272 274 274 274 274 274 274 274 274 274 274 275 276 277 278 279 279 281 283 287 289 294 297 298 297 298 301
277 276 275 275 275 274 273 274 274 273 273 273 272 272 272 272 272 273 274 275 275 275 275 276 276 276 276 276 276 277 277 279 281 281 284 284 286 295 294 295 297 301 301
275 274 274 274 274 273 272 273 274 274 273 272 272 272 272 273 273 273 273 274 275 274 275 275 276 276 277 277 278 279 279 280 280 281 281 283 284 286 292 293 294 296 300
274 274 274 273 272 272 272 273 273 273 272 272 272 273 274 274 274 275 275 275 275 275 275 275 275 275 276 276 277 278 278 279 279 280 280 282 282 287 291 293 294 295 298
273 273 273 272 272 272 271 272 273 274 273 273 273 274 274 274 273 275 275 275 275 275 274 275 275 276 277 279 279 279 279 279 280 280 281 283 285 288 291 292 294 294 298
273 273 272 272 271 271 271 272 274 274 274 274 274 274 273 273 274 275 276 275 274 275 275 274 275 275 276 277 277 279 281 281 283 283 282 282 287 291 291 293 295 294 300

GFSMA_925_thetae_003.txt.gz
Theta_e
295 295 295 295 295 294 294 294 293 293 292 292 292 292 292 293 293 293 293 294 294 299 303 306 308 310 311 313 315 316 317 318 320 327 326 327 332 330 332 334 336 338 339
294 294 294 294 294 293 293 293 292 292 291 291 291 291 291 292 292 292 292 293 294 294 300 302 306 308 309 310 312 313 315 317 318 318 324 329 328 333 331 332 334 336 338
294 294 294 293 293 292 292 292 292 291 291 290 290 290 291 291 291 291 293 294 296 296 297 300 302 303 305 307 309 310 312 313 315 317 318 320 326 328 331 331 332 334 336
293 293 293 293 293 292 292 291 291 290 290 290 290 290 290 291 291 293 294 294 295 296 298 298 299 302 303 305 306 308 309 311 312 313 314 315 320 325 330 329 330 332 335
293 292 292 292 292 291 291 290 290 289 289 289 289 290 290 290 292 292 293 295 297 297 298 299 298 299 301 303 304 307 309 312 313 314 313 313 312 314 323 329 329 329 333
292 292 292 292 291 290 290 289 289 289 289 289 289 290 289 291 292 292 296 296 296 296 298 297 297 297 299 301 301 302 306 307 308 308 312 314 314 318 317 318 327 328 328
291 291 290 290 289 289 289 289 289 289 289 289 289 289 290 290 292 294 293 292 293 295 296 296 298 298 297 295 297 297 299 305 308 307 308 311 316 313 313 321 320 321 329
290 290 290 289 289 289 289 288 288 288 288 289 288 289 288 290 293 291 292 291 290 292 292 294 294 294 295 297 295 299 300 298 300 304 306 307 308 308 310 311 319 325 324
290 290 289 289 288 289 289 288 288 288 288 287 287 289 288 289 289 291 290 291 292 291 290 291 291 292 291 295 295 293 292 296 297 295 297 300 301 306 306 310 313 316 322
289 289 288 288 288 288 289 288 287 287 287 287 287 288 289 288 288 288 290 289 288 290 288 288 288 289 289 289 290 291 293 293 292 296 298 299 297 298 301 306 306 307 310
288 288 288 288 287 288 288 287 286 286 286 286 286 286 286 286 287 287 287 287 286 286 286 287 287 287 288 288 289 290 290 290 293 295 294 294 296 298 300 300 302 304 305
288 288 288 287 287 287 288 287 286 285 285 284 284 284 285 285 286 285 285 285 285 285 285 285 286 287 287 287 288 289 290 293 292 292 294 296 296 297 297 299 299 300 302
288 288 287 286 286 286 287 286 285 284 283 283 282 283 283 284 284 284 284 284 284 284 284 285 285 286 286 286 287 288 288 289 290 291 293 294 295 296 297 298 298 299 302
289 288 287 286 286 285 286 285 284 283 282 281 281 282 282 282 282 282 283 283 283 283 284 284 285 285 285 285 285 285 286 287 288 289 291 292 293 294 295 298 300 302 303
289 287 286 286 285 284 284 284 283 282 281 280 280 280 280 281 281 281 281 281 282 282 283 284 284 284 283 282 282 282 283 284 285 286 287 287 288 289 291 294 296 298 300
288 287 285 285 284 283 284 283 282 281 280 280 279 279 279 279 279 278 278 278 279 280 280 281 281 280 279 278 278 278 278 280 281 283 284 285 286 287 288 289 292 295 298
287 286 285 284 283 283 283 282 281 280 279 278 278 277 277 276 276 275 275 275 275 276 277 277 278 277 276 275 275 275 276 276 278 279 281 282 284 285 286 287 289 290 293
286 285 284 283 283 283 282 281 279 278 278 277 276 275 275 274 273 273 272 272 272 273 274 274 274 274 274 273 273 274 274 275 276 277 278 280 281 283 284 285 286 287 289
285 283 283 282 282 282 280 279 278 277 277 276 274 273 273 272 272 271 271 271 271 272 272 272 272 272 272 273 273 273 274 275 276 277 278 280 281 284 285 287 288 288 289
284 282 282 282 281 280 279 278 278 277 275 274 273 273 272 272 271 271 271 271 271 271 271 272 272 272 273 273 274 274 274 275 276 277 278 279 280 282 285 287 290 291 291
282 282 281 280 280 279 278 278 277 275 274 273 273 272 272 272 272 273 273 273 273 273 273 274 274 274 275 276 276 276 276 276 277 277 278 279 281 283 284 284 287 291 292
281 280 279 279 278 278 278 277 275 275 274 273 273 273 272 272 272 273 274 275 275 276 276 276 276 277 276 276 276 276 277 277 278 279 280 280 281 281 282 283 284 287 290
279 278 277 277 277 277 277 276 276 275 274 273 273 272 272 273 273 273 274 274 275 274 275 276 276 276 276 276 276 276 276 277 277 278 279 279 279 280 281 282 284 286 289
277 277 276 276 276 276 276 275 276 275 274 273 273 273 273 273 274 274 274 275 275 275 275 275 275 275 275 276 276 276 276 276 277 277 278 279 279 280 281 282 284 287 290
275 275 276 275 275 275 275 275 275 274 274 273 273 273 273 273 274 275 276 276 275 275 275 275 275 276 277 277 278 278 279 278 278 278 279 279 280 280 282 283 283 285 289
274 274 274 275 275 274 274 274 275 274 274 274 273 274 274 274 274 275 277 276 274 273 273 275 274 273 273 273 274 275 277 279 279 279 279 281 282 282 282 282 283 286 290

GFSMA_925_thetae_006.txt.gz
Theta_e
296 296 296 296 295 295 295 295 295 294 294 293 293 293 293 293 293 293 293 293 294 295 301 304 307 309 310 311 312 313 315 316 317 318 318 321 327 329 329 332 331 333 335
296 296 296 295 295 294 294 294 294 294 293 293 293 292 292 292 292 292 293 294 295 296 297 303 304 306 307 308 309 311 312 313 314 315 316 318 320 323 326 329 330 331 333
295 295 295 295 294 294 294 293 293 293 292 292 292 292 292 292 292 292 293 294 296 297 298 299 302 303 305 306 308 308 309 311 312 313 314 315 316 317 319 325 328 329 331
294 294 295 294 294 293 293 293 293 292 292 292 292 292 292 292 292 292 292 295 296 297 297 298 298 298 302 303 305 307 308 312 314 315 315 313 312 313 315 315 321 327 329
294 294 294 293 293 293 293 293 292 292 291 291 291 291 291 291 291 291 294 292 292 295 294 296 297 297 297 302 303 301 303 305 306 308 309 315 316 316 317 318 318 319 323
293 293 293 293 293 293 292 292 291 290 290 290 290 290 290 290 290 292 294 291 291 294 293 295 297 296 297 297 298 300 299 303 307 305 305 307 311 314 315 313 315 317 322
292 292 292 292 292 292 291 291 290 290 289 289 289 289 290 290 292 291 291 290 291 291 292 292 293 292 292 293 293 295 301 301 300 298 304 302 304 308 309 309 312 313 316
292 292 292 292 291 291 290 290 290 289 289 288 288 288 287 289 292 290 290 290 290 291 290 289 288 288 288 288 292 295 294 294 295 300 300 298 299 302 304 305 306 308 314
291 291 291 291 290 290 290 289 289 289 288 287 287 287 286 287 287 289 288 289 289 288 288 287 286 287 287 287 288 288 290 292 295 295 295 297 300 301 301 299 302 305 309
290 290 290 290 290 289 288 288 288 289 288 287 287 287 288 288 286 286 287 287 288 286 286 286 286 286 286 287 287 287 288 291 292 293 295 297 297 297 297 298 301 303 304
289 289 289 289 289 289 288 288 288 289 288 287 286 286 285 285 286 286 286 286 285 285 285 285 285 286 286 286 286 286 289 290 292 292 292 293 295 296 298 299 300 300 301
289 288 289 288 288 288 288 287 287 287 287 286 285 284 284 284 285 285 284 284 283 284 285 285 285 285 285 285 286 286 287 287 288 288 289 290 292 293 294 296 298 299 300
289 288 288 288 287 287 287 286 286 286 286 285 284 283 283 283 283 283 283 283 283 283 284 284 285 285 285 285 285 284 283 284 284 285 286 287 289 290 292 294 295 296 297
289 289 288 287 287 287 286 286 286 285 285 284 283 282 282 282 282 282 282 282 282 282 283 284 283 284 284 283 281 280 279 280 281 282 283 284 286 287 289 290 291 293 294
289 289 288 287 286 286 286 286 285 284 284 283 282 281 281 281 281 281 281 280 281 281 282 282 282 283 281 279 278 277 277 277 278 279 280 281 282 284 285 287 289 290 292
289 289 288 287 286 285 285 284 284 283 283 282 282 281 281 280 280 279 278 277 277 278 278 280 280 279 277 276 275 275 275 275 275 276 277 278 280 281 283 285 286 288 289
290 289 288 286 285 285 284 283 283 282 282 282 281 281 280 279 278 277 276 275 275 275 275 277 277 275 275 274 274 274 274 274 274 275 276 277 279 280 281 283 284 285 286
289 289 287 286 285 284 283 283 282 281 282 281 280 279 278 277 276 275 274 274 273 273 273 273 274 274 274 273 273 273 273 274 274 274 276 277 279 280 281 283 284 285 286
288 287 287 286 284 283 283 282 281 281 281 280 280 278 277 275 275 274 273 273 272 272 272 272 273 273 273 273 273 274 274 275 275 275 276 277 277 279 280 281 282 283 284
288 287 286 285 284 283 282 280 280 280 280 279 278 277 276 275 274 274 273 272 272 272 272 272 272 273 273 274 275 275 276 277 277 277 276 277 277 278 279 280 282 283 286
287 286 285 284 283 282 281 280 279 279 279 277 276 276 275 274 274 273 273 273 273 273 272 273 273 274 276 276 277 276 276 276 276 276 277 277 277 278 279 280 281 282 282
284 284 283 283 281 280 280 279 279 278 277 277 276 275 274 274 274 274 275 276 276 276 275 275 276 277 276 276 277 277 276 276 276 276 276 276 276 277 278 279 279 280 281
283 281 280 280 279 279 278 278 277 278 277 276 275 274 273 273 273 273 274 275 276 276 276 276 277 277 276 276 276 276 276 276 276 276 276 277 277 277 277 278 279 280 281
281 279 278 278 279 279 278 279 278 277 277 276 275 274 273 273 274 274 274 274 274 275 275 275 276 276 276 276 276 277 278 278 278 278 277 277 277 277 278 278 279 280 281
278 277 277 277 277 277 279 280 279 277 275 274 274 274 274 274 274 275 275 276 276 276 276 276 275 275 276 276 275 274 274 274 274 275 275 277 278 278 279 279 279 280 282
277 276 275 276 276 277 278 279 278 276 275 274 274 274 274 274 275 276 276 276 276 275 274 274 274 273 271 270 271 272 272 272 273 274 276 277 278 279 279 279 279 280 280

GFSMA_925_thetae_009.txt.gz
Theta_e
297 297 296 296 296 296 295 295 295 294 294 294 294 294 293 293 293 293 293 294 295 297 303 306 308 308 309 310 311 312 313 314 314 315 315 316 318 320 323 326 329 331 332
297 296 296 296 296 296 296 295 295 295 295 294 294 293 293 293 293 292 293 294 295 297 299 304 305 306 308 309 310 310 311 312 313 314 314 315 315 316 318 320 323 327 330
296 296 295 295 295 295 295 295 295 294 294 294 294 293 293 293 292 293 293 295 296 296 297 299 302 303 305 306 308 309 307 312 314 315 314 313 314 314 314 318 319 321 325
296 295 295 295 295 294 294 294 294 293 293 293 294 293 293 292 292 292 294 292 292 295 295 296 297 300 302 303 303 303 305 304 306 308 310 311 311 315 318 317 317 318 319
296 295 294 294 294 293 293 293 293 293 293 293 293 293 292 292 291 292 293 292 291 293 295 296 296 295 297 299 299 301 301 307 308 304 303 306 308 309 312 313 313 315 317
295 294 294 294 293 293 292 292 292 292 292 292 292 292 292 291 291 292 291 290 290 291 291 292 292 291 291 291 295 299 303 301 301 299 301 306 303 302 304 309 309 311 313
294 293 293 293 292 292 292 292 292 291 291 291 291 291 290 292 292 291 289 291 291 291 290 289 289 288 288 288 288 294 295 296 297 299 302 301 300 301 303 305 305 304 305
293 293 293 292 292 292 291 291 291 291 290 289 289 288 287 289 292 289 289 290 289 288 288 288 288 287 287 287 288 289 292 294 296 296 297 298 299 302 303 304 302 302 304
293 292 292 292 292 291 292 292 291 290 290 288 288 288 286 287 287 289 288 288 288 287 286 287 286 287 287 287 287 287 290 292 294 295 296 296 296 297 298 300 301 302 303
292 291 291 291 291 291 291 291 290 290 290 289 287 287 287 288 286 285 287 287 287 286 286 286 286 286 286 286 286 286 290 290 290 290 291 292 293 294 295 296 298 300 302
293 291 291 290 290 290 290 290 290 289 289 289 288 287 286 285 285 285 285 285 285 285 284 284 285 285 285 285 286 286 286 286 287 287 287 288 289 291 292 294 296 298 299
292 291 290 290 290 289 289 289 289 289 288 288 287 287 286 285 285 284 284 283 283 284 284 285 285 285 285 285 285 284 282 283 284 284 285 285 286 287 289 291 293 294 295
291 290 289 289 289 289 288 288 288 288 288 287 287 286 285 284 284 284 283 283 282 283 283 284 284 284 284 284 283 281 280 280 281 282 283 284 285 285 286 288 289 291 293
290 290 289 289 289 288 288 288 288 287 287 286 285 284 284 283 283 283 282 282 282 282 283 284 283 284 283 283 281 279 279 280 279 280 281 282 283 283 284 285 287 288 289
291 290 290 289 288 288 287 287 287 287 286 285 284 283 283 283 282 282 281 281 281 281 281 282 283 283 283 281 280 278 278 278 278 279 279 280 281 282 283 284 285 286 288
291 290 290 289 288 287 287 286 286 286 285 284 283 283 282 282 281 281 281 280 279 279 278 279 281 280 279 278 277 277 279 278 278 277 278 279 280 281 282 283 284 285 286
291 290 290 289 288 287 286 286 286 285 283 283 282 282 282 281 281 280 279 278 277 276 276 276 277 277 276 276 276 275 275 275 276 276 277 278 279 280 281 282 282 283 285
291 291 290 289 288 287 286 286 285 284 283 282 282 281 281 280 280 279 278 277 276 275 274 274 275 275 275 274 275 275 275 276 276 276 277 279 280 280 280 280 281 282 283
290 289 289 288 287 287 286 285 285 284 283 282 282 281 281 280 279 278 277 275 275 275 274 273 273 274 274 275 275 276 276 277 277 277 277 277 278 278 279 280 281 281 282
289 288 288 288 287 286 286 285 284 283 282 281 281 280 280 279 279 277 276 275 274 273 274 273 273 274 275 276 277 277 276 277 277 277 277 277 277 278 278 279 279 280 281
287 288 287 285 284 285 285 284 283 282 281 280 279 279 278 278 277 277 276 275 274 274 274 273 274 275 277 277 276 277 277 276 276 276 276 276 276 276 277 277 277 278 279
285 285 284 284 283 283 283 283 282 281 280 279 278 277 277 276 276 276 276 276 276 276 275 274 275 277 276 277 276 276 276 276 277 277 277 277 277 277 277 277 277 278 279
283 283 283 282 281 281 281 281 280 281 280 278 278 277 276 276 276 275 276 277 277 277 278 277 277 277 276 276 276 276 276 277 277 277 276 275 276 277 277 277 278 278 279
283 282 282 281 280 280 281 282 279 279 278 278 277 277 276 275 275 274 274 274 275 275 275 275 276 276 276 277 277 277 276 274 273 273 273 274 274 274 275 275 276 278 279
281 281 280 280 279 278 281 282 280 277 276 276 276 276 275 275 275 275 275 275 275 275 276 277 277 277 277 277 276 274 272 271 272 272 272 272 273 274 275 275 276 277 279
281 280 279 279 279 278 281 282 280 277 276 275 275 275 275 275 275 276 276 276 276 276 276 275 275 275 274 273 272 272 271 270 270 271 274 272 272 272 273 273 274 277 278